Theta_e
320 319 319 319 318 318 319 320 321 320 318 317 316 315 315 317 316 314 313 313 314 314 315 319 322 323 322 321 319 318 322 323 323 324 325 325 326 325 326 325 325 324 323 324
321 320 320 319 319 319 318 319 319 318 318 316 317 317 315 316 317 315 313 313 313 313 314 317 320 322 322 321 322 319 322 323 324 324 325 325 326 326 326 326 325 325 326 324
322 322 321 320 321 320 319 319 319 319 319 316 316 316 318 317 317 316 313 313 312 312 314 315 317 319 322 319 319 320 316 318 322 325 326 326 326 326 326 326 322 325 327 327
320 320 321 321 321 319 319 318 318 320 318 317 316 317 318 318 318 318 314 312 312 312 313 315 315 316 323 322 319 319 317 316 316 324 325 325 326 327 327 327 327 325 326 327
322 320 321 321 322 320 321 320 318 319 319 317 319 318 318 319 320 322 314 313 311 311 312 315 315 317 321 323 320 320 319 322 320 322 326 327 325 326 328 326 327 323 324 326
321 319 320 321 321 320 320 317 318 317 317 318 317 318 318 321 321 322 316 314 312 311 312 315 317 318 319 324 321 321 323 324 320 323 325 325 323 322 323 325 328 328 328 327
321 321 320 319 319 317 316 315 316 319 320 322 320 320 320 319 319 322 320 315 313 312 311 315 314 317 318 322 323 320 323 323 319 321 324 326 321 321 323 324 324 328 329 330
322 323 321 319 319 319 315 315 317 320 320 320 324 325 325 321 324 319 321 316 313 312 311 314 315 317 319 320 324 324 322 322 319 319 321 321 320 320 320 320 321 328 329 329
322 322 320 319 317 315 316 318 316 318 320 322 323 325 328 325 325 322 317 314 314 313 312 315 315 317 318 320 321 325 323 321 319 320 319 319 321 319 319 319 319 321 325 328
320 322 320 320 320 319 315 316 318 316 322 323 323 328 329 329 327 325 317 315 314 312 313 314 314 316 318 321 321 324 323 320 321 319 320 320 319 317 318 319 319 319 323 325
317 319 321 323 323 320 321 323 323 317 319 322 322 327 327 329 328 326 319 315 314 313 315 314 313 317 319 320 321 323 323 318 317 318 319 319 320 320 317 319 321 319 320 321
317 318 321 327 329 327 320 321 324 323 326 325 325 329 325 329 330 326 321 316 314 314 315 313 314 317 317 320 320 323 321 318 315 315 316 316 318 319 318 318 321 322 320 322
316 317 321 325 331 328 328 331 329 327 328 332 333 330 326 330 325 322 318 316 314 314 313 312 313 315 317 318 321 323 321 319 318 318 319 318 315 317 318 318 320 322 320 322
320 317 320 322 322 328 330 332 330 327 329 332 331 329 327 329 329 325 318 315 314 315 314 314 314 314 318 319 320 322 321 320 320 320 319 318 316 315 316 318 319 320 320 320
318 320 320 321 321 327 327 330 331 328 326 329 328 329 329 328 329 328 321 314 315 314 315 315 315 315 318 319 319 321 319 321 321 320 319 318 316 316 316 316 318 319 319 319
319 321 328 332 323 326 327 327 330 328 328 328 329 330 329 329 329 328 322 317 316 315 316 316 316 316 318 318 319 320 319 320 321 320 319 318 315 315 316 316 315 317 318 318
324 323 327 333 329 332 333 330 329 329 328 328 329 327 326 327 330 328 327 319 317 316 316 316 316 317 318 319 320 319 319 316 321 320 320 318 314 315 316 316 314 314 315 316
327 326 327 335 332 335 328 328 328 329 328 325 325 325 325 326 327 327 323 322 320 317 316 316 317 317 318 319 320 320 318 316 321 320 320 319 314 314 315 316 315 313 313 313
325 326 328 337 327 329 330 330 330 329 329 327 326 325 325 325 326 325 325 322 321 318 316 316 317 317 318 318 320 319 317 315 320 320 321 320 316 313 315 315 315 314 313 312
324 324 329 323 331 335 327 326 327 325 330 326 327 325 325 325 327 327 325 324 323 321 318 316 317 317 318 318 319 318 316 315 318 320 321 321 318 315 314 315 315 315 314 313
328 326 328 322 323 326 324 327 323 328 326 325 326 325 323 325 324 323 322 324 322 320 319 317 317 317 318 318 318 318 316 315 316 318 320 321 319 318 313 315 314 314 313 311
328 326 327 324 326 330 325 327 327 324 324 327 325 322 324 324 323 322 325 322 322 320 319 317 316 317 317 318 318 318 317 317 317 318 320 321 320 320 315 313 314 314 313 312
329 325 325 324 325 322 325 326 324 320 324 325 324 324 324 324 324 323 324 323 322 321 321 318 316 317 316 318 318 318 318 318 317 318 320 321 320 321 319 314 314 314 315 314
326 322 325 324 323 322 324 322 322 321 322 326 324 323 324 325 325 325 323 323 323 320 321 319 317 316 316 317 318 318 318 319 318 319 320 321 321 322 323 320 316 316 316 316
325 323 323 323 322 320 320 321 321 322 324 325 325 325 325 324 326 324 324 321 321 319 322 321 317 316 316 316 317 318 318 319 319 319 320 321 322 322 323 324 321 319 319 319
322 324 326 324 319 320 321 319 320 322 323 324 324 325 327 326 325 323 321 322 323 322 323 321 319 318 317 317 317 317 318 318 320 320 320 321 321 322 323 323 324 323 320 319
Wind_Speed
3 3 6 8 7 6 5 4 7 3 4 6 11 8 10 8 4 8 8 8 7 7 7 10 9 6 2 2 4 5 4 7 8 7 7 7 9 9 7 6 3 10 6 8
1 8 8 7 4 4 5 7 7 7 4 8 7 12 5 8 10 6 10 8 9 5 5 7 9 7 3 2 2 3 6 10 12 9 4 4 6 5 7 7 8 16 14 17
10 12 6 4 3 5 6 5 5 7 5 2 3 6 3 4 5 7 6 6 5 10 9 6 8 7 6 3 2 1 2 4 7 13 4 2 5 9 9 13 10 18 16 9
11 6 8 5 6 5 6 8 9 5 3 6 5 5 5 4 10 9 11 9 10 9 5 6 9 8 9 4 2 3 3 3 6 8 8 8 10 14 11 14 11 15 14 16
15 8 7 9 11 7 11 10 10 5 5 2 0 3 7 3 6 9 13 12 10 9 9 9 11 12 10 9 3 3 3 6 6 11 11 12 18 19 17 10 13 13 9 10
13 6 9 11 9 7 13 1 6 4 3 2 6 5 5 5 8 5 8 10 12 10 8 8 18 13 10 11 7 5 4 6 9 13 13 12 14 14 14 13 12 10 12 4
5 6 4 5 5 1 4 5 3 4 3 6 1 3 8 9 11 10 19 15 13 10 9 8 8 12 11 12 12 7 4 8 9 13 11 9 12 13 14 14 12 14 14 12
9 11 9 6 8 9 9 10 6 7 5 9 3 5 7 6 8 7 13 15 14 10 8 9 12 17 15 13 15 11 7 8 10 13 14 14 14 13 13 15 14 15 18 19
11 12 4 7 6 10 6 4 8 5 2 2 3 6 9 3 6 8 9 13 14 12 9 11 13 20 16 16 15 15 11 9 10 11 14 14 14 13 12 15 14 15 17 22
8 6 7 12 4 4 8 5 3 2 3 6 3 3 6 6 4 5 8 11 12 9 9 9 11 19 17 20 16 14 14 12 12 11 12 13 12 13 13 14 16 16 16 15
7 6 3 3 7 11 2 2 4 4 4 6 1 6 7 8 8 15 15 17 17 15 13 12 12 21 18 16 16 18 17 14 13 13 13 13 13 13 12 13 16 18 18 17
10 7 8 9 2 3 5 10 8 5 4 2 4 7 4 4 9 8 12 16 15 15 14 11 15 20 17 17 15 21 20 17 15 13 12 12 13 14 12 14 14 17 17 17
7 4 6 6 3 2 3 4 5 6 4 6 6 6 1 1 5 7 9 12 14 13 10 8 9 14 20 20 17 24 22 20 18 15 14 12 12 13 14 14 15 15 15 16
12 7 13 19 13 6 5 6 7 7 5 4 5 6 6 6 4 3 8 10 14 14 14 11 9 13 22 24 20 26 24 23 20 18 17 15 12 14 13 14 15 15 14 16
10 16 11 14 17 14 9 11 12 6 7 8 9 9 6 7 3 6 2 9 12 14 15 14 12 10 21 24 23 25 23 24 22 21 17 16 14 14 14 15 16 16 17 16
4 6 7 5 10 15 15 13 18 9 2 1 5 7 6 4 5 6 13 15 17 17 18 17 15 14 20 24 27 24 26 25 25 24 20 14 14 15 15 16 16 16 17 17
4 5 4 4 5 8 7 13 12 6 7 9 8 12 4 4 7 11 12 15 21 22 20 19 19 20 24 27 31 28 28 26 28 28 22 16 15 15 14 15 16 17 17 17
7 6 3 3 5 9 9 15 15 19 8 8 6 8 8 9 8 12 7 11 13 16 19 19 18 24 26 31 35 31 29 28 31 30 26 22 19 17 15 15 16 16 16 16
7 6 3 6 3 5 4 5 9 8 12 11 17 8 6 5 2 7 12 14 17 18 18 26 35 35 31 30 37 34 31 31 31 31 29 26 24 22 19 19 19 18 18 17
7 4 6 4 7 16 5 5 6 6 5 11 10 10 9 6 3 11 8 10 13 14 25 25 31 33 32 32 39 33 30 32 30 32 32 30 28 26 25 22 21 19 18 16
5 3 12 4 4 6 5 11 9 7 8 9 16 13 10 7 10 5 3 6 8 14 23 25 29 33 38 36 37 32 30 31 39 37 34 32 32 30 28 27 25 23 21 18
6 6 4 3 3 6 6 6 16 7 2 6 7 8 12 11 7 8 4 4 7 8 14 29 26 29 32 36 38 33 32 39 39 37 36 35 35 33 31 31 29 25 23 22
12 7 6 8 6 4 20 10 14 7 7 7 9 7 9 9 8 8 6 6 7 9 21 27 30 30 32 38 40 36 36 38 38 37 37 37 37 37 35 35 33 30 28 27
4 4 5 4 5 9 17 11 2 6 5 4 4 7 9 9 8 6 6 7 5 8 17 28 27 26 29 38 41 47 38 41 39 37 37 38 38 37 37 37 37 36 35 34
6 9 8 4 1 7 4 15 7 7 6 6 6 7 8 7 6 7 8 5 6 4 16 25 30 29 34 39 44 41 39 42 41 39 37 35 37 38 38 40 41 40 40 41
5 9 8 7 8 7 7 11 9 8 7 7 8 7 5 7 7 1 5 2 3 3 12 18 23 27 31 36 41 38 40 43 42 37 36 37 36 34 34 35 36 43 45 45
Wind_Direction
171 149 205 213 206 204 222 236 257 246 244 182 225 224 231 196 205 171 173 177 174 178 197 151 156 173 112 36 22 42 5 7 15 27 14 24 21 27 38 55 83 95 71 96
34 217 214 219 211 203 237 253 273 283 245 178 253 245 216 187 215 180 171 185 179 185 180 164 162 185 135 33 312 81 76 51 34 34 19 17 12 11 33 80 75 77 90 95
218 241 192 174 265 266 258 231 250 236 338 234 127 302 209 220 180 158 188 177 169 180 177 178 178 187 150 80 25 30 96 62 43 40 49 53 39 46 71 105 81 100 100 93
217 207 188 186 223 185 267 235 247 249 157 236 141 257 293 230 209 190 177 180 183 189 170 179 178 190 168 146 65 74 130 71 63 60 73 77 69 69 44 74 93 98 79 90
222 164 187 220 234 197 249 240 233 229 206 142 300 87 265 119 218 227 199 189 184 190 175 184 184 189 181 179 151 156 87 59 81 113 89 90 84 85 76 78 81 87 108 118
201 199 161 213 230 194 245 260 48 45 87 34 233 151 285 225 211 207 191 192 178 184 185 189 186 187 182 185 167 141 99 89 96 129 108 101 86 93 97 94 73 64 88 158
175 210 192 152 204 2 115 82 289 333 346 220 264 111 229 250 238 199 187 185 174 176 176 180 184 199 183 192 193 185 136 116 111 124 133 127 101 98 97 98 100 112 109 115
189 233 187 201 178 207 204 184 172 213 226 260 188 230 255 231 275 217 192 172 155 169 178 182 191 194 191 200 205 202 181 141 132 130 129 126 117 108 95 91 102 107 100 104
193 230 230 178 183 158 221 176 204 131 354 44 255 298 319 25 38 107 133 149 169 178 178 188 192 195 194 205 211 203 193 176 157 137 137 134 127 129 112 96 99 116 112 108
209 220 206 236 138 209 166 174 87 0 177 252 275 267 246 271 176 150 158 173 175 165 176 192 191 198 198 208 215 203 194 191 180 165 150 141 138 135 140 113 111 117 130 128
148 152 257 144 179 215 205 158 57 125 138 188 194 263 222 247 198 200 187 176 179 176 182 188 195 197 195 206 209 200 194 189 187 176 165 153 146 146 147 139 116 117 121 122
195 166 211 211 255 243 177 187 155 172 226 153 158 262 29 277 214 198 201 181 179 178 178 190 188 194 192 189 199 199 195 192 185 176 173 165 160 155 151 153 126 116 120 120
164 217 230 294 29 17 180 173 134 114 91 185 154 263 84 116 233 197 189 176 176 169 164 180 178 186 191 189 194 196 199 202 192 186 178 171 171 167 159 152 148 137 126 134
177 179 204 226 225 158 189 185 184 140 127 169 229 289 308 325 228 196 182 173 173 177 179 184 188 186 194 193 191 192 202 207 206 196 185 177 177 176 167 165 157 155 147 136
169 217 217 230 212 197 191 177 188 164 171 181 225 208 231 274 151 281 257 148 170 174 181 187 193 188 190 193 194 196 204 206 207 203 197 183 175 175 174 168 168 161 155 148
322 218 152 206 194 205 208 202 189 188 105 68 142 245 211 150 158 188 193 178 180 188 191 188 190 193 186 191 196 197 200 199 201 202 204 193 180 177 172 172 170 167 163 160
221 147 122 226 196 119 252 194 171 172 186 172 193 230 161 286 250 227 220 202 187 188 190 189 189 191 192 189 197 198 201 199 198 199 200 194 189 187 181 172 168 167 166 164
210 124 106 124 118 199 265 173 181 191 187 178 204 175 184 213 241 254 157 195 211 197 192 193 189 191 194 190 198 198 201 198 197 198 196 192 191 191 185 180 175 173 173 176
201 122 108 148 204 289 318 174 143 159 228 201 203 193 204 210 14 275 227 193 207 195 197 193 191 189 186 189 197 197 196 197 197 198 198 195 193 192 191 189 186 184 185 186
82 98 136 118 191 230 185 203 154 81 266 192 188 201 191 117 176 249 235 206 205 201 196 194 190 184 182 189 193 191 190 191 194 199 202 199 196 196 196 196 195 196 201 204
123 73 182 134 207 277 233 154 137 143 233 180 189 203 160 182 206 192 264 227 201 197 189 186 180 183 188 186 186 188 189 190 203 205 204 202 199 199 201 198 199 201 202 205
149 145 183 106 143 222 158 160 168 187 125 146 180 169 179 207 216 220 209 280 189 166 176 178 179 192 186 186 184 188 194 200 202 202 202 205 203 202 201 202 203 205 204 206
192 179 173 183 198 206 169 185 204 165 154 187 164 167 178 186 219 210 198 224 186 186 189 190 188 184 185 189 193 192 197 195 195 197 200 204 207 205 206 204 204 205 207 211
203 135 150 123 205 175 187 224 154 184 182 149 191 164 170 198 211 211 243 243 274 170 192 190 184 187 187 191 196 207 190 192 191 194 198 201 204 206 210 211 211 209 209 214
182 143 154 218 234 110 196 218 192 177 130 133 167 187 204 201 221 211 223 215 248 245 210 193 186 188 194 190 200 202 192 189 191 195 197 199 203 206 207 214 215 217 222 222
189 165 175 204 193 169 195 207 173 149 146 175 195 215 211 164 195 250 298 219 232 177 162 173 193 197 200 197 201 196 193 190 192 194 197 199 201 205 205 209 216 228 231 233